Time,TemperatureF,DewpointF,PressureIn,WindDirection,WindDirectionDegrees,WindSpeedMPH,WindSpeedGustMPH,Humidity,HourlyPrecipIn,Conditions,Clouds,dailyrainin,SoftwareType,DateUTC
2013-06-18 00:01:00,55.0,54.5,30.06,South,180,0.0,2.0,97,0.00,,,0.00,Rainwise IP-100,2013-06-18 04:01:00,
2013-06-18 00:06:00,55.0,54.5,30.06,South,180,1.0,2.0,97,0.00,,,0.00,Rainwise IP-100,2013-06-18 04:06:00,
2013-06-18 00:11:00,55.0,54.5,30.06,NE,45,0.0,4.0,97,0.00,,,0.00,Rainwise IP-100,2013-06-18 04:11:00,
2013-06-18 00:16:00,55.0,54.5,30.06,NE,45,0.0,2.0,97,0.00,,,0.00,Rainwise IP-100,2013-06-18 04:16:00,
2013-06-18 00:21:00,55.0,54.5,30.06,NE,45,0.0,0.0,97,0.00,,,0.00,Rainwise IP-100,2013-06-18 04:21:00,
2013-06-18 00:26:00,55.0,54.5,30.06,NE,45,0.0,1.0,97,0.00,,,0.00,Rainwise IP-100,2013-06-18 04:26:00,
2013-06-18 00:31:00,55.0,54.5,30.06,NE,45,0.0,2.0,97,0.00,,,0.00,Rainwise IP-100,2013-06-18 04:31:00,
2013-06-18 00:36:00,55.0,54.5,30.06,NE,45,0.0,0.0,97,0.00,,,0.00,Rainwise IP-100,2013-06-18 04:36:00,
2013-06-18 00:41:00,55.0,54.5,30.06,NE,45,0.0,0.0,97,0.00,,,0.00,Rainwise IP-100,2013-06-18 04:41:00,
2013-06-18 00:46:00,54.0,53.5,30.06,SSE,157,0.0,2.0,97,0.00,,,0.00,Rainwise IP-100,2013-06-18 04:46:00,
2013-06-18 00:51:00,55.0,54.5,30.06,SSE,157,4.0,0.0,97,0.00,,,0.00,Rainwise IP-100,2013-06-18 04:51:00,
2013-06-18 00:56:00,55.0,54.5,30.06,SSW,202,3.0,5.0,97,0.00,,,0.00,Rainwise IP-100,2013-06-18 04:56:00,
2013-06-18 01:01:00,55.0,54.5,30.05,SSE,157,3.0,5.0,97,0.00,,,0.00,Rainwise IP-100,2013-06-18 05:01:00,
2013-06-18 01:06:00,55.0,54.5,30.05,SSE,157,3.0,5.0,97,0.00,,,0.00,Rainwise IP-100,2013-06-18 05:06:00,
2013-06-18 01:11:00,54.0,53.5,30.04,SSE,157,2.0,4.0,97,0.00,,,0.00,Rainwise IP-100,2013-06-18 05:11:00,
2013-06-18 01:16:00,55.0,54.0,30.04,SSE,157,0.0,4.0,96,0.00,,,0.00,Rainwise IP-100,2013-06-18 05:16:00,
2013-06-18 01:21:00,55.0,53.5,30.04,SSE,157,0.0,2.0,94,0.00,,,0.00,Rainwise IP-100,2013-06-18 05:21:00,
2013-06-18 01:26:00,55.0,53.5,30.04,SSE,157,2.0,2.0,94,0.00,,,0.00,Rainwise IP-100,2013-06-18 05:26:00,
2013-06-18 01:31:00,54.0,53.5,30.04,SSE,157,0.0,2.0,97,0.00,,,0.00,Rainwise IP-100,2013-06-18 05:31:00,
2013-06-18 01:36:00,54.0,53.5,30.04,SSE,157,0.0,0.0,97,0.00,,,0.00,Rainwise IP-100,2013-06-18 05:36:00,
2013-06-18 01:41:00,54.0,53.5,30.05,SSE,157,0.0,0.0,97,0.00,,,0.00,Rainwise IP-100,2013-06-18 05:41:00,
2013-06-18 01:46:00,53.0,52.0,30.05,SSE,157,3.0,3.0,97,0.00,,,0.00,Rainwise IP-100,2013-06-18 05:46:00,
2013-06-18 01:51:00,54.0,53.5,30.05,SSE,157,0.0,4.0,97,0.00,,,0.00,Rainwise IP-100,2013-06-18 05:51:00,
2013-06-18 01:56:00,53.0,52.0,30.05,SSE,157,0.0,2.0,97,0.00,,,0.00,Rainwise IP-100,2013-06-18 05:56:00,
2013-06-18 02:01:00,53.0,52.0,30.05,SSE,157,0.0,2.0,97,0.00,,,0.00,Rainwise IP-100,2013-06-18 06:01:00,
2013-06-18 02:02:00,53.0,52.0,30.05,SSE,157,0.0,0.0,97,0.00,,,0.00,Rainwise IP-100,2013-06-18 06:02:00,
2013-06-18 02:07:00,53.0,52.0,30.05,North,360,2.0,2.0,97,0.00,,,0.00,Rainwise IP-100,2013-06-18 06:07:00,
2013-06-18 02:12:00,53.0,52.0,30.05,NNW,337,7.0,7.0,97,0.00,,,0.00,Rainwise IP-100,2013-06-18 06:12:00,
2013-06-18 02:17:00,53.0,52.0,30.05,NNW,337,4.0,7.0,97,0.00,,,0.00,Rainwise IP-100,2013-06-18 06:17:00,
2013-06-18 02:21:00,53.0,52.0,30.05,NNW,337,2.0,7.0,97,0.00,,,0.00,Rainwise IP-100,2013-06-18 06:21:00,
2013-06-18 02:26:00,53.0,52.0,30.05,NNW,337,0.0,6.0,97,0.00,,,0.00,Rainwise IP-100,2013-06-18 06:26:00,
2013-06-18 02:31:00,53.0,52.0,30.05,North,360,3.0,6.0,97,0.00,,,0.00,Rainwise IP-100,2013-06-18 06:31:00,
2013-06-18 02:36:00,53.0,52.0,30.05,NW,315,5.0,7.0,97,0.00,,,0.00,Rainwise IP-100,2013-06-18 06:36:00,
2013-06-18 02:41:00,53.0,51.0,30.05,NW,315,4.0,7.0,96,0.00,,,0.00,Rainwise IP-100,2013-06-18 06:41:00,
2013-06-18 02:46:00,53.0,52.0,30.05,NNW,337,1.0,6.0,97,0.00,,,0.00,Rainwise IP-100,2013-06-18 06:46:00,
2013-06-18 02:51:00,53.0,52.0,30.05,NNW,337,3.0,3.0,97,0.00,,,0.00,Rainwise IP-100,2013-06-18 06:51:00,
2013-06-18 02:56:00,53.0,51.0,30.05,NW,315,5.0,6.0,95,0.00,,,0.00,Rainwise IP-100,2013-06-18 06:56:00,
2013-06-18 03:01:00,53.0,51.0,30.05,NW,315,2.0,6.0,96,0.00,,,0.00,Rainwise IP-100,2013-06-18 07:01:00,
2013-06-18 03:06:00,53.0,51.0,30.05,NW,315,3.0,5.0,96,0.00,,,0.00,Rainwise IP-100,2013-06-18 07:06:00,
2013-06-18 03:11:00,53.0,51.0,30.05,NW,315,3.0,4.0,96,0.00,,,0.00,Rainwise IP-100,2013-06-18 07:11:00,
2013-06-18 03:16:00,53.0,51.0,30.05,WNW,292,3.0,4.0,96,0.00,,,0.00,Rainwise IP-100,2013-06-18 07:16:00,
2013-06-18 03:21:00,53.0,52.0,30.04,NW,315,0.0,4.0,97,0.00,,,0.00,Rainwise IP-100,2013-06-18 07:21:00,
2013-06-18 03:26:00,53.0,52.0,30.04,NW,315,2.0,3.0,97,0.00,,,0.00,Rainwise IP-100,2013-06-18 07:26:00,
2013-06-18 03:31:00,52.0,50.5,30.04,NW,315,2.0,3.0,96,0.00,,,0.00,Rainwise IP-100,2013-06-18 07:31:00,
2013-06-18 03:36:00,53.0,50.5,30.04,NW,315,1.0,3.0,93,0.00,,,0.00,Rainwise IP-100,2013-06-18 07:36:00,
2013-06-18 03:41:00,53.0,50.5,30.04,NW,315,3.0,3.0,93,0.00,,,0.00,Rainwise IP-100,2013-06-18 07:41:00,
2013-06-18 03:46:00,52.0,50.0,30.04,NW,315,0.0,4.0,93,0.00,,,0.00,Rainwise IP-100,2013-06-18 07:46:00,
2013-06-18 03:51:00,52.0,51.0,30.04,SSE,157,4.0,5.0,97,0.00,,,0.00,Rainwise IP-100,2013-06-18 07:51:00,
2013-06-18 03:56:00,52.0,51.0,30.04,SSE,157,1.0,5.0,97,0.00,,,0.00,Rainwise IP-100,2013-06-18 07:56:00,
2013-06-18 04:01:00,52.0,51.0,30.04,SSE,157,4.0,4.0,97,0.00,,,0.00,Rainwise IP-100,2013-06-18 08:01:00,
2013-06-18 04:06:00,52.0,51.0,30.04,SSE,157,0.0,4.0,97,0.00,,,0.00,Rainwise IP-100,2013-06-18 08:06:00,
2013-06-18 04:11:00,52.0,51.0,30.04,SSE,157,0.0,0.0,97,0.00,,,0.00,Rainwise IP-100,2013-06-18 08:11:00,
2013-06-18 04:16:00,51.0,50.5,30.04,SSE,157,0.0,0.0,97,0.00,,,0.00,Rainwise IP-100,2013-06-18 08:16:00,
2013-06-18 04:21:00,50.0,49.0,30.05,SSE,157,0.0,0.0,97,0.00,,,0.00,Rainwise IP-100,2013-06-18 08:21:00,
2013-06-18 04:26:00,50.0,49.0,30.05,SSE,157,1.0,0.0,97,0.00,,,0.00,Rainwise IP-100,2013-06-18 08:26:00,
2013-06-18 04:31:00,50.0,49.0,30.05,SSE,157,2.0,2.0,97,0.00,,,0.00,Rainwise IP-100,2013-06-18 08:31:00,
2013-06-18 04:36:00,50.0,49.0,30.05,SSE,157,2.0,3.0,97,0.00,,,0.00,Rainwise IP-100,2013-06-18 08:36:00,
2013-06-18 04:41:00,50.0,49.0,30.05,SSE,157,0.0,3.0,97,0.00,,,0.00,Rainwise IP-100,2013-06-18 08:41:00,
2013-06-18 04:46:00,50.0,49.0,30.05,SSE,157,0.0,0.0,97,0.00,,,0.00,Rainwise IP-100,2013-06-18 08:46:00,
2013-06-18 04:51:00,50.0,49.0,30.05,SSE,157,0.0,0.0,97,0.00,,,0.00,Rainwise IP-100,2013-06-18 08:51:00,
2013-06-18 04:56:00,50.0,49.0,30.05,SSE,157,0.0,0.0,97,0.00,,,0.00,Rainwise IP-100,2013-06-18 08:56:00,
2013-06-18 05:01:00,50.0,49.0,30.06,SSE,157,0.0,1.0,97,0.00,,,0.00,Rainwise IP-100,2013-06-18 09:01:00,
2013-06-18 05:06:00,50.0,49.0,30.06,SSE,157,0.0,2.0,97,0.00,,,0.00,Rainwise IP-100,2013-06-18 09:06:00,
2013-06-18 05:11:00,49.0,48.0,30.06,SW,225,3.0,4.0,97,0.00,,,0.00,Rainwise IP-100,2013-06-18 09:11:00,
2013-06-18 05:16:00,49.0,48.0,30.06,SW,225,0.0,4.0,97,0.00,,,0.00,Rainwise IP-100,2013-06-18 09:16:00,
2013-06-18 05:21:00,49.0,48.0,30.07,SW,225,0.0,1.0,97,0.00,,,0.00,Rainwise IP-100,2013-06-18 09:21:00,
2013-06-18 05:26:00,49.0,48.0,30.07,SW,225,0.0,0.0,97,0.00,,,0.00,Rainwise IP-100,2013-06-18 09:26:00,
2013-06-18 05:31:00,49.0,48.0,30.07,SW,225,0.0,1.0,97,0.00,,,0.00,Rainwise IP-100,2013-06-18 09:31:00,
2013-06-18 05:36:00,49.0,48.0,30.07,SW,225,2.0,2.0,97,0.00,,,0.00,Rainwise IP-100,2013-06-18 09:36:00,
2013-06-18 05:41:00,49.0,48.0,30.07,SW,225,0.0,2.0,97,0.00,,,0.00,Rainwise IP-100,2013-06-18 09:41:00,
2013-06-18 05:46:00,49.0,48.0,30.07,SW,225,0.0,1.0,97,0.00,,,0.00,Rainwise IP-100,2013-06-18 09:46:00,
2013-06-18 05:51:00,49.0,48.0,30.06,SW,225,0.0,0.0,97,0.00,,,0.00,Rainwise IP-100,2013-06-18 09:51:00,
2013-06-18 05:56:00,49.0,48.0,30.06,SW,225,0.0,0.0,97,0.00,,,0.00,Rainwise IP-100,2013-06-18 09:56:00,
2013-06-18 06:01:00,49.0,48.0,30.07,SW,225,0.0,0.0,97,0.00,,,0.00,Rainwise IP-100,2013-06-18 10:01:00,
2013-06-18 06:06:00,49.0,48.0,30.07,SW,225,0.0,0.0,97,0.00,,,0.00,Rainwise IP-100,2013-06-18 10:06:00,
2013-06-18 06:11:00,49.0,48.0,30.07,SW,225,0.0,0.0,97,0.00,,,0.00,Rainwise IP-100,2013-06-18 10:11:00,
2013-06-18 06:16:00,49.0,48.0,30.07,SW,225,0.0,0.0,97,0.00,,,0.00,Rainwise IP-100,2013-06-18 10:16:00,
2013-06-18 06:21:00,49.0,48.0,30.07,SW,225,0.0,0.0,97,0.00,,,0.00,Rainwise IP-100,2013-06-18 10:21:00,
2013-06-18 06:26:00,49.0,48.0,30.07,SE,135,2.0,4.0,97,0.00,,,0.00,Rainwise IP-100,2013-06-18 10:26:00,
2013-06-18 06:31:00,49.0,48.0,30.07,SE,135,2.0,5.0,97,0.00,,,0.00,Rainwise IP-100,2013-06-18 10:31:00,
2013-06-18 06:36:00,49.0,48.0,30.07,SE,135,2.0,3.0,97,0.00,,,0.00,Rainwise IP-100,2013-06-18 10:36:00,
2013-06-18 06:41:00,50.0,49.0,30.07,South,180,3.0,7.0,97,0.00,,,0.00,Rainwise IP-100,2013-06-18 10:41:00,
2013-06-18 06:46:00,50.0,49.0,30.07,SW,225,2.0,7.0,97,0.00,,,0.00,Rainwise IP-100,2013-06-18 10:46:00,
2013-06-18 06:50:00,51.0,50.5,30.07,WSW,247,5.0,6.0,97,0.00,,,0.00,Rainwise IP-100,2013-06-18 10:50:00,
2013-06-18 06:55:00,51.0,50.5,30.07,SW,225,2.0,6.0,97,0.00,,,0.00,Rainwise IP-100,2013-06-18 10:55:00,
2013-06-18 07:00:00,52.0,51.0,30.07,SSW,202,0.0,5.0,97,0.00,,,0.00,Rainwise IP-100,2013-06-18 11:00:00,
2013-06-18 07:05:00,52.0,51.0,30.07,WNW,292,3.0,3.0,97,0.00,,,0.00,Rainwise IP-100,2013-06-18 11:05:00,
2013-06-18 07:10:00,52.0,51.0,30.08,WNW,292,3.0,4.0,97,0.00,,,0.00,Rainwise IP-100,2013-06-18 11:10:00,
2013-06-18 07:15:00,52.0,51.0,30.08,WNW,292,0.0,3.0,97,0.00,,,0.00,Rainwise IP-100,2013-06-18 11:15:00,
2013-06-18 07:20:00,53.0,52.0,30.08,WNW,292,0.0,2.0,97,0.00,,,0.00,Rainwise IP-100,2013-06-18 11:20:00,
2013-06-18 07:25:00,53.0,52.0,30.08,WNW,292,1.0,1.0,97,0.00,,,0.00,Rainwise IP-100,2013-06-18 11:25:00,
2013-06-18 07:30:00,54.0,53.5,30.08,SW,225,4.0,5.0,97,0.00,,,0.00,Rainwise IP-100,2013-06-18 11:30:00,
2013-06-18 07:35:00,54.0,53.5,30.08,SW,225,1.0,4.0,97,0.00,,,0.00,Rainwise IP-100,2013-06-18 11:35:00,
2013-06-18 07:39:00,54.0,53.0,30.08,SW,225,1.0,3.0,95,0.00,,,0.00,Rainwise IP-100,2013-06-18 11:39:00,
2013-06-18 07:44:00,54.0,52.0,30.08,SSW,202,2.0,4.0,94,0.00,,,0.00,Rainwise IP-100,2013-06-18 11:44:00,
2013-06-18 07:49:00,54.0,52.0,30.08,WSW,247,4.0,5.0,93,0.00,,,0.00,Rainwise IP-100,2013-06-18 11:49:00,
2013-06-18 07:54:00,54.0,52.0,30.08,WSW,247,1.0,4.0,94,0.00,,,0.00,Rainwise IP-100,2013-06-18 11:54:00,
2013-06-18 07:59:00,54.0,52.0,30.08,WSW,247,2.0,2.0,92,0.00,,,0.00,Rainwise IP-100,2013-06-18 11:59:00,
2013-06-18 08:04:00,54.0,52.0,30.08,WSW,247,0.0,2.0,93,0.00,,,0.00,Rainwise IP-100,2013-06-18 12:04:00,
2013-06-18 08:09:00,54.0,52.0,30.08,WSW,247,0.0,2.0,92,0.00,,,0.00,Rainwise IP-100,2013-06-18 12:09:00,
2013-06-18 08:14:00,54.0,52.0,30.08,WSW,247,0.0,1.0,93,0.00,,,0.00,Rainwise IP-100,2013-06-18 12:14:00,
2013-06-18 08:19:00,55.0,53.5,30.07,WSW,247,0.0,0.0,94,0.00,,,0.00,Rainwise IP-100,2013-06-18 12:19:00,
2013-06-18 08:24:00,55.0,53.5,30.07,WSW,247,0.0,0.0,94,0.00,,,0.00,Rainwise IP-100,2013-06-18 12:24:00,
2013-06-18 08:29:00,55.0,54.5,30.07,NW,315,3.0,3.0,97,0.00,,,0.00,Rainwise IP-100,2013-06-18 12:29:00,
2013-06-18 08:34:00,56.0,55.0,30.07,NNW,337,0.0,3.0,97,0.00,,,0.00,Rainwise IP-100,2013-06-18 12:34:00,
2013-06-18 08:39:00,57.0,56.0,30.07,NNW,337,0.0,2.0,96,0.00,,,0.00,Rainwise IP-100,2013-06-18 12:39:00,
2013-06-18 08:44:00,57.0,56.0,30.07,NNW,337,2.0,3.0,96,0.00,,,0.00,Rainwise IP-100,2013-06-18 12:44:00,
2013-06-18 08:49:00,57.0,55.0,30.07,NNW,337,3.0,3.0,93,0.00,,,0.00,Rainwise IP-100,2013-06-18 12:49:00,
2013-06-18 08:54:00,58.0,56.0,30.07,NNW,337,0.0,3.0,91,0.00,,,0.00,Rainwise IP-100,2013-06-18 12:54:00,
2013-06-18 08:59:00,57.0,54.5,30.07,NNW,337,0.0,4.0,92,0.00,,,0.00,Rainwise IP-100,2013-06-18 12:59:00,
2013-06-18 09:04:00,57.0,53.5,30.07,North,360,3.0,6.0,87,0.00,,,0.00,Rainwise IP-100,2013-06-18 13:04:00,
2013-06-18 09:09:00,57.0,54.0,30.07,North,360,1.0,4.0,89,0.00,,,0.00,Rainwise IP-100,2013-06-18 13:09:00,
2013-06-18 09:14:00,57.0,53.5,30.07,North,360,3.0,3.0,87,0.00,,,0.00,Rainwise IP-100,2013-06-18 13:14:00,
2013-06-18 09:19:00,57.0,54.0,30.08,North,360,0.0,3.0,89,0.00,,,0.00,Rainwise IP-100,2013-06-18 13:19:00,
2013-06-18 09:24:00,56.0,53.5,30.08,North,360,0.0,3.0,90,0.00,,,0.00,Rainwise IP-100,2013-06-18 13:24:00,
2013-06-18 09:29:00,56.0,53.5,30.09,North,360,1.0,2.0,92,0.00,,,0.00,Rainwise IP-100,2013-06-18 13:29:00,
2013-06-18 09:34:00,56.0,54.0,30.09,North,360,1.0,2.0,93,0.00,,,0.00,Rainwise IP-100,2013-06-18 13:34:00,
2013-06-18 09:39:00,55.0,53.5,30.11,North,360,0.0,3.0,94,0.00,,,0.00,Rainwise IP-100,2013-06-18 13:39:00,
2013-06-18 09:44:00,55.0,53.5,30.11,North,360,0.0,0.0,94,0.00,,,0.00,Rainwise IP-100,2013-06-18 13:44:00,
2013-06-18 09:49:00,54.0,53.0,30.11,East,90,2.0,2.0,96,0.00,,,0.00,Rainwise IP-100,2013-06-18 13:49:00,
2013-06-18 09:54:00,54.0,53.5,30.11,East,90,1.0,4.0,97,0.06,,,0.01,Rainwise IP-100,2013-06-18 13:54:00,
2013-06-18 09:59:00,54.0,53.5,30.11,East,90,0.0,4.0,97,0.06,,,0.01,Rainwise IP-100,2013-06-18 13:59:00,
2013-06-18 10:04:00,54.0,53.5,30.11,East,90,0.0,0.0,97,0.00,,,0.01,Rainwise IP-100,2013-06-18 14:04:00,
2013-06-18 10:09:00,54.0,53.5,30.11,East,90,0.0,0.0,97,0.00,,,0.01,Rainwise IP-100,2013-06-18 14:09:00,
2013-06-18 10:14:00,54.0,53.0,30.11,East,90,2.0,0.0,96,0.00,,,0.02,Rainwise IP-100,2013-06-18 14:14:00,
2013-06-18 10:19:00,54.0,53.0,30.11,North,360,4.0,4.0,95,0.06,,,0.02,Rainwise IP-100,2013-06-18 14:19:00,
2013-06-18 10:24:00,54.0,53.5,30.11,NNW,337,2.0,6.0,97,0.06,,,0.02,Rainwise IP-100,2013-06-18 14:24:00,
2013-06-18 10:29:00,54.0,52.0,30.11,NNW,337,0.0,4.0,94,0.00,,,0.02,Rainwise IP-100,2013-06-18 14:29:00,
2013-06-18 10:34:00,54.0,53.0,30.11,West,270,0.0,3.0,95,0.00,,,0.02,Rainwise IP-100,2013-06-18 14:34:00,
2013-06-18 10:39:00,54.0,53.0,30.11,West,270,0.0,0.0,95,0.00,,,0.02,Rainwise IP-100,2013-06-18 14:39:00,
2013-06-18 10:44:00,55.0,54.5,30.11,West,270,0.0,0.0,97,0.00,,,0.02,Rainwise IP-100,2013-06-18 14:44:00,
2013-06-18 10:49:00,55.0,54.0,30.11,NW,315,2.0,5.0,96,0.00,,,0.02,Rainwise IP-100,2013-06-18 14:49:00,
2013-06-18 10:54:00,55.0,54.0,30.09,NW,315,0.0,2.0,95,0.00,,,0.02,Rainwise IP-100,2013-06-18 14:54:00,
2013-06-18 10:59:00,55.0,54.0,30.09,NW,315,0.0,2.0,95,0.00,,,0.02,Rainwise IP-100,2013-06-18 14:59:00,
2013-06-18 11:04:00,55.0,53.5,30.09,West,270,3.0,4.0,93,0.00,,,0.02,Rainwise IP-100,2013-06-18 15:04:00,
2013-06-18 11:09:00,55.0,54.0,30.09,NW,315,5.0,7.0,96,0.00,,,0.02,Rainwise IP-100,2013-06-18 15:09:00,
2013-06-18 11:14:00,55.0,54.5,30.09,WNW,292,7.0,7.0,97,0.00,,,0.02,Rainwise IP-100,2013-06-18 15:14:00,
2013-06-18 11:19:00,55.0,54.5,30.09,West,270,4.0,7.0,97,0.00,,,0.02,Rainwise IP-100,2013-06-18 15:19:00,
2013-06-18 11:24:00,54.0,53.5,30.09,West,270,5.0,7.0,97,0.00,,,0.02,Rainwise IP-100,2013-06-18 15:24:00,
2013-06-18 11:29:00,54.0,53.5,30.09,WSW,247,4.0,7.0,97,0.00,,,0.02,Rainwise IP-100,2013-06-18 15:29:00,
2013-06-18 11:34:00,55.0,54.5,30.09,WSW,247,6.0,6.0,97,0.00,,,0.02,Rainwise IP-100,2013-06-18 15:34:00,
2013-06-18 11:39:00,55.0,54.0,30.09,WSW,247,3.0,6.0,96,0.00,,,0.02,Rainwise IP-100,2013-06-18 15:39:00,
2013-06-18 11:44:00,55.0,54.0,30.09,WSW,247,4.0,6.0,96,0.00,,,0.02,Rainwise IP-100,2013-06-18 15:44:00,
2013-06-18 11:49:00,55.0,54.0,30.09,WSW,247,4.0,6.0,95,0.00,,,0.02,Rainwise IP-100,2013-06-18 15:49:00,
2013-06-18 11:54:00,55.0,54.0,30.09,NW,315,5.0,6.0,95,0.00,,,0.02,Rainwise IP-100,2013-06-18 15:54:00,
2013-06-18 11:59:00,56.0,54.0,30.09,NW,315,5.0,6.0,94,0.00,,,0.02,Rainwise IP-100,2013-06-18 15:59:00,
2013-06-18 12:04:00,56.0,53.5,30.09,NW,315,5.0,6.0,90,0.00,,,0.02,Rainwise IP-100,2013-06-18 16:04:00,
2013-06-18 12:09:00,56.0,51.0,30.09,NW,315,4.0,7.0,84,0.00,,,0.02,Rainwise IP-100,2013-06-18 16:09:00,
2013-06-18 12:14:00,57.0,51.0,30.09,WNW,292,4.0,7.0,81,0.00,,,0.02,Rainwise IP-100,2013-06-18 16:14:00,
2013-06-18 12:19:00,58.0,52.0,30.09,NW,315,2.0,5.0,80,0.00,,,0.02,Rainwise IP-100,2013-06-18 16:19:00,
2013-06-18 12:24:00,58.0,52.0,30.09,North,360,3.0,6.0,79,0.00,,,0.02,Rainwise IP-100,2013-06-18 16:24:00,
2013-06-18 12:29:00,58.0,53.0,30.09,NNW,337,5.0,6.0,81,0.00,,,0.02,Rainwise IP-100,2013-06-18 16:29:00,
2013-06-18 12:34:00,58.0,53.0,30.09,NNW,337,6.0,6.0,81,0.00,,,0.02,Rainwise IP-100,2013-06-18 16:34:00,
2013-06-18 12:39:00,59.0,53.5,30.09,NW,315,1.0,6.0,81,0.00,,,0.02,Rainwise IP-100,2013-06-18 16:39:00,
2013-06-18 12:44:00,59.0,53.5,30.09,East,90,1.0,2.0,81,0.00,,,0.02,Rainwise IP-100,2013-06-18 16:44:00,
2013-06-18 12:49:00,59.0,51.0,30.09,East,90,0.0,2.0,75,0.00,,,0.02,Rainwise IP-100,2013-06-18 16:49:00,
2013-06-18 12:54:00,60.0,53.0,30.09,East,90,0.0,2.0,77,0.00,,,0.02,Rainwise IP-100,2013-06-18 16:54:00,
2013-06-18 12:59:00,60.0,53.5,30.09,West,270,3.0,6.0,78,0.00,,,0.02,Rainwise IP-100,2013-06-18 16:59:00,
2013-06-18 13:04:00,60.0,51.0,30.09,SW,225,4.0,6.0,74,0.00,,,0.02,Rainwise IP-100,2013-06-18 17:04:00,
2013-06-18 13:09:00,60.0,51.0,30.09,WSW,247,4.0,5.0,73,0.00,,,0.02,Rainwise IP-100,2013-06-18 17:09:00,
2013-06-18 13:14:00,61.0,50.5,30.09,SW,225,0.0,4.0,69,0.00,,,0.02,Rainwise IP-100,2013-06-18 17:14:00,
2013-06-18 13:19:00,61.0,50.0,30.08,WSW,247,0.0,1.0,66,0.00,,,0.02,Rainwise IP-100,2013-06-18 17:19:00,
2013-06-18 13:24:00,62.0,49.0,30.08,East,90,2.0,4.0,63,0.00,,,0.02,Rainwise IP-100,2013-06-18 17:24:00,
2013-06-18 13:29:00,61.0,49.0,30.08,SE,135,2.0,3.0,65,0.00,,,0.02,Rainwise IP-100,2013-06-18 17:29:00,
2013-06-18 13:34:00,62.0,50.0,30.08,ESE,112,1.0,3.0,65,0.00,,,0.02,Rainwise IP-100,2013-06-18 17:34:00,
2013-06-18 13:39:00,64.0,49.0,30.07,North,360,2.0,5.0,58,0.00,,,0.02,Rainwise IP-100,2013-06-18 17:39:00,
2013-06-18 13:44:00,64.0,50.0,30.07,NW,315,2.0,5.0,60,0.00,,,0.02,Rainwise IP-100,2013-06-18 17:44:00,
2013-06-18 13:49:00,63.0,47.0,30.06,East,90,5.0,5.0,56,0.00,,,0.02,Rainwise IP-100,2013-06-18 17:49:00,
2013-06-18 13:54:00,64.0,50.0,30.06,North,360,2.0,6.0,60,0.00,,,0.02,Rainwise IP-100,2013-06-18 17:54:00,
2013-06-18 13:59:00,64.0,48.0,30.06,East,90,6.0,6.0,56,0.00,,,0.02,Rainwise IP-100,2013-06-18 17:59:00,
2013-06-18 14:04:00,63.0,50.5,30.06,SE,135,5.0,6.0,64,0.00,,,0.02,Rainwise IP-100,2013-06-18 18:04:00,
2013-06-18 14:09:00,65.0,50.5,30.07,NNW,337,0.0,7.0,60,0.00,,,0.02,Rainwise IP-100,2013-06-18 18:09:00,
2013-06-18 14:14:00,65.0,49.0,30.07,NE,45,1.0,5.0,56,0.00,,,0.02,Rainwise IP-100,2013-06-18 18:14:00,
2013-06-18 14:19:00,66.0,50.0,30.05,North,360,0.0,5.0,56,0.00,,,0.02,Rainwise IP-100,2013-06-18 18:19:00,
2013-06-18 14:24:00,66.0,49.0,30.05,NNW,337,2.0,5.0,55,0.00,,,0.02,Rainwise IP-100,2013-06-18 18:24:00,
2013-06-18 14:29:00,65.0,50.5,30.05,East,90,0.0,5.0,59,0.00,,,0.02,Rainwise IP-100,2013-06-18 18:29:00,
2013-06-18 14:34:00,66.0,50.0,30.05,North,360,6.0,6.0,56,0.00,,,0.02,Rainwise IP-100,2013-06-18 18:34:00,
2013-06-18 14:39:00,66.0,49.0,30.05,East,90,2.0,6.0,54,0.00,,,0.02,Rainwise IP-100,2013-06-18 18:39:00,
2013-06-18 14:44:00,66.0,48.0,30.05,East,90,3.0,5.0,53,0.00,,,0.02,Rainwise IP-100,2013-06-18 18:44:00,
2013-06-18 14:49:00,65.0,47.5,30.05,SE,135,2.0,5.0,54,0.00,,,0.02,Rainwise IP-100,2013-06-18 18:49:00,
2013-06-18 14:54:00,66.0,47.5,30.05,South,180,0.0,2.0,52,0.00,,,0.02,Rainwise IP-100,2013-06-18 18:54:00,
2013-06-18 14:59:00,65.0,47.5,30.05,ESE,112,4.0,4.0,53,0.00,,,0.02,Rainwise IP-100,2013-06-18 18:59:00,
2013-06-18 15:04:00,65.0,50.0,30.05,East,90,3.0,4.0,58,0.00,,,0.02,Rainwise IP-100,2013-06-18 19:04:00,
2013-06-18 15:09:00,64.0,47.0,30.05,ESE,112,2.0,7.0,54,0.00,,,0.02,Rainwise IP-100,2013-06-18 19:09:00,
2013-06-18 15:14:00,65.0,49.0,30.05,East,90,1.0,7.0,56,0.00,,,0.02,Rainwise IP-100,2013-06-18 19:14:00,
2013-06-18 15:20:00,69.0,50.0,30.02,North,360,4.0,5.0,51,0.00,,,0.02,Rainwise IP-100,2013-06-18 19:20:00,
2013-06-18 15:25:00,67.0,53.0,30.02,ESE,112,1.0,7.0,59,0.00,,,0.02,Rainwise IP-100,2013-06-18 19:25:00,
2013-06-18 15:30:00,69.0,49.0,30.03,NNE,22,1.0,3.0,49,0.00,,,0.02,Rainwise IP-100,2013-06-18 19:30:00,
2013-06-18 15:35:00,71.0,50.0,30.03,NNE,22,0.0,2.0,47,0.00,,,0.02,Rainwise IP-100,2013-06-18 19:35:00,
2013-06-18 15:40:00,71.0,50.5,30.03,North,360,2.0,4.0,49,0.00,,,0.02,Rainwise IP-100,2013-06-18 19:40:00,
2013-06-18 15:45:00,70.0,50.5,30.02,NNW,337,6.0,6.0,50,0.00,,,0.02,Rainwise IP-100,2013-06-18 19:45:00,
2013-06-18 15:50:00,69.0,46.0,30.02,East,90,3.0,6.0,44,0.00,,,0.02,Rainwise IP-100,2013-06-18 19:50:00,
2013-06-18 15:55:00,71.0,49.0,30.02,NE,45,1.0,5.0,46,0.00,,,0.02,Rainwise IP-100,2013-06-18 19:55:00,
2013-06-18 16:00:00,71.0,47.5,30.02,NE,45,1.0,3.0,44,0.00,,,0.02,Rainwise IP-100,2013-06-18 20:00:00,
2013-06-18 16:05:00,68.0,45.0,30.02,NE,45,3.0,3.0,44,0.00,,,0.02,Rainwise IP-100,2013-06-18 20:05:00,
2013-06-18 16:10:00,68.0,47.0,30.03,East,90,1.0,5.0,47,0.00,,,0.02,Rainwise IP-100,2013-06-18 20:10:00,
2013-06-18 16:15:00,68.0,47.0,30.03,NE,45,1.0,5.0,47,0.00,,,0.02,Rainwise IP-100,2013-06-18 20:15:00,
2013-06-18 16:20:00,68.0,47.0,30.02,NE,45,4.0,5.0,47,0.00,,,0.02,Rainwise IP-100,2013-06-18 20:20:00,
2013-06-18 16:25:00,69.0,48.0,30.02,NE,45,1.0,4.0,48,0.00,,,0.02,Rainwise IP-100,2013-06-18 20:25:00,
2013-06-18 16:30:00,66.0,44.0,30.03,East,90,5.0,6.0,46,0.00,,,0.02,Rainwise IP-100,2013-06-18 20:30:00,
2013-06-18 16:35:00,66.0,46.0,30.03,ESE,112,5.0,5.0,48,0.00,,,0.02,Rainwise IP-100,2013-06-18 20:35:00,
2013-06-18 16:40:00,66.0,47.5,30.02,East,90,1.0,5.0,51,0.00,,,0.02,Rainwise IP-100,2013-06-18 20:40:00,
2013-06-18 16:45:00,66.0,46.0,30.02,North,360,4.0,8.0,49,0.00,,,0.02,Rainwise IP-100,2013-06-18 20:45:00,
2013-06-18 16:50:00,67.0,47.5,30.02,North,360,2.0,5.0,49,0.00,,,0.02,Rainwise IP-100,2013-06-18 20:50:00,
2013-06-18 16:55:00,67.0,47.5,30.02,ENE,67,2.0,5.0,49,0.00,,,0.02,Rainwise IP-100,2013-06-18 20:55:00,
2013-06-18 17:00:00,68.0,49.0,30.02,NE,45,0.0,3.0,50,0.00,,,0.02,Rainwise IP-100,2013-06-18 21:00:00,
2013-06-18 17:05:00,67.0,47.0,30.02,ENE,67,2.0,4.0,48,0.00,,,0.02,Rainwise IP-100,2013-06-18 21:05:00,
2013-06-18 17:10:00,67.0,45.0,30.02,North,360,2.0,5.0,45,0.00,,,0.02,Rainwise IP-100,2013-06-18 21:10:00,
2013-06-18 17:15:00,68.0,47.0,30.02,North,360,1.0,3.0,46,0.00,,,0.02,Rainwise IP-100,2013-06-18 21:15:00,
2013-06-18 17:20:00,69.0,47.0,30.02,North,360,0.0,2.0,45,0.00,,,0.02,Rainwise IP-100,2013-06-18 21:20:00,
2013-06-18 17:25:00,68.0,47.0,30.02,NNE,22,0.0,3.0,46,0.00,,,0.02,Rainwise IP-100,2013-06-18 21:25:00,
2013-06-18 17:30:00,67.0,46.0,30.02,East,90,2.0,7.0,47,0.00,,,0.02,Rainwise IP-100,2013-06-18 21:30:00,
2013-06-18 17:35:00,66.0,47.5,30.02,East,90,1.0,3.0,51,0.00,,,0.02,Rainwise IP-100,2013-06-18 21:35:00,
2013-06-18 17:40:00,67.0,48.0,30.02,ENE,67,0.0,3.0,51,0.00,,,0.02,Rainwise IP-100,2013-06-18 21:40:00,
2013-06-18 17:45:00,67.0,48.0,30.02,East,90,4.0,7.0,51,0.00,,,0.02,Rainwise IP-100,2013-06-18 21:45:00,
2013-06-18 17:50:00,67.0,49.0,30.03,East,90,1.0,4.0,52,0.00,,,0.02,Rainwise IP-100,2013-06-18 21:50:00,
2013-06-18 17:55:00,67.0,49.0,30.03,East,90,1.0,1.0,52,0.00,,,0.02,Rainwise IP-100,2013-06-18 21:55:00,
2013-06-18 18:00:00,67.0,51.0,30.03,East,90,0.0,3.0,56,0.00,,,0.02,Rainwise IP-100,2013-06-18 22:00:00,
2013-06-18 18:05:00,67.0,48.0,30.03,NE,45,1.0,0.0,50,0.00,,,0.02,Rainwise IP-100,2013-06-18 22:05:00,
2013-06-18 18:10:00,68.0,46.0,30.02,NNW,337,1.0,6.0,45,0.00,,,0.02,Rainwise IP-100,2013-06-18 22:10:00,
2013-06-18 18:15:00,69.0,46.0,30.02,NNW,337,1.0,3.0,44,0.00,,,0.02,Rainwise IP-100,2013-06-18 22:15:00,
2013-06-18 18:20:00,69.0,43.0,30.02,NNW,337,2.0,6.0,40,0.00,,,0.02,Rainwise IP-100,2013-06-18 22:20:00,
2013-06-18 18:25:00,67.0,47.0,30.02,NE,45,1.0,4.0,48,0.00,,,0.02,Rainwise IP-100,2013-06-18 22:25:00,
2013-06-18 18:30:00,67.0,47.0,30.03,NNW,337,3.0,7.0,48,0.00,,,0.02,Rainwise IP-100,2013-06-18 22:30:00,
2013-06-18 18:35:00,67.0,47.5,30.03,NW,315,2.0,8.0,49,0.00,,,0.02,Rainwise IP-100,2013-06-18 22:35:00,
2013-06-18 18:40:00,67.0,45.0,30.03,SSE,157,0.0,5.0,45,0.00,,,0.02,Rainwise IP-100,2013-06-18 22:40:00,
2013-06-18 18:45:00,66.0,44.0,30.03,North,360,3.0,7.0,45,0.00,,,0.02,Rainwise IP-100,2013-06-18 22:45:00,
2013-06-18 18:50:00,65.0,46.0,30.03,NW,315,5.0,9.0,50,0.00,,,0.02,Rainwise IP-100,2013-06-18 22:50:00,
2013-06-18 18:55:00,65.0,46.0,30.03,NW,315,4.0,7.0,50,0.00,,,0.02,Rainwise IP-100,2013-06-18 22:55:00,
2013-06-18 19:00:00,65.0,47.0,30.04,NW,315,6.0,7.0,51,0.00,,,0.02,Rainwise IP-100,2013-06-18 23:00:00,
2013-06-18 19:05:00,65.0,46.0,30.04,NNW,337,4.0,8.0,50,0.00,,,0.02,Rainwise IP-100,2013-06-18 23:05:00,
2013-06-18 19:10:00,64.0,47.0,30.04,NW,315,6.0,7.0,53,0.00,,,0.02,Rainwise IP-100,2013-06-18 23:10:00,
2013-06-18 19:15:00,64.0,47.0,30.04,NW,315,4.0,6.0,54,0.00,,,0.02,Rainwise IP-100,2013-06-18 23:15:00,
2013-06-18 19:20:00,64.0,47.5,30.04,NW,315,4.0,5.0,55,0.00,,,0.02,Rainwise IP-100,2013-06-18 23:20:00,
2013-06-18 19:25:00,64.0,48.0,30.04,NW,315,0.0,5.0,57,0.00,,,0.02,Rainwise IP-100,2013-06-18 23:25:00,
2013-06-18 19:30:00,64.0,48.0,30.04,NW,315,5.0,6.0,57,0.00,,,0.02,Rainwise IP-100,2013-06-18 23:30:00,
2013-06-18 19:35:00,63.0,48.0,30.04,NNW,337,5.0,6.0,59,0.00,,,0.02,Rainwise IP-100,2013-06-18 23:35:00,
2013-06-18 19:40:00,63.0,48.0,30.05,NNW,337,5.0,6.0,59,0.00,,,0.02,Rainwise IP-100,2013-06-18 23:40:00,
2013-06-18 19:45:00,62.0,48.0,30.05,NW,315,3.0,6.0,60,0.00,,,0.02,Rainwise IP-100,2013-06-18 23:45:00,
2013-06-18 19:50:00,62.0,48.0,30.05,NW,315,2.0,3.0,60,0.00,,,0.02,Rainwise IP-100,2013-06-18 23:50:00,
2013-06-18 19:55:00,62.0,48.0,30.05,NNW,337,2.0,5.0,60,0.00,,,0.02,Rainwise IP-100,2013-06-18 23:55:00,
2013-06-18 20:00:00,62.0,48.0,30.05,NNW,337,0.0,3.0,60,0.00,,,0.02,Rainwise IP-100,2013-06-19 00:00:00,
2013-06-18 20:05:00,62.0,49.0,30.05,NNW,337,0.0,0.0,62,0.00,,,0.02,Rainwise IP-100,2013-06-19 00:05:00,
2013-06-18 20:10:00,61.0,49.0,30.07,NNW,337,0.0,0.0,65,0.00,,,0.02,Rainwise IP-100,2013-06-19 00:10:00,
2013-06-18 20:15:00,61.0,50.0,30.07,NNW,337,0.0,0.0,66,0.00,,,0.02,Rainwise IP-100,2013-06-19 00:15:00,
2013-06-18 20:20:00,61.0,47.0,30.06,NNW,337,0.0,1.0,60,0.00,,,0.02,Rainwise IP-100,2013-06-19 00:20:00,
2013-06-18 20:25:00,60.0,46.0,30.06,NNW,337,0.0,2.0,60,0.00,,,0.02,Rainwise IP-100,2013-06-19 00:25:00,
2013-06-18 20:30:00,59.0,47.5,30.07,NNW,337,0.0,0.0,65,0.00,,,0.02,Rainwise IP-100,2013-06-19 00:30:00,
2013-06-18 20:35:00,58.0,47.5,30.07,NNW,337,0.0,0.0,68,0.00,,,0.02,Rainwise IP-100,2013-06-19 00:35:00,
2013-06-18 20:40:00,57.0,47.5,30.07,NNW,337,0.0,0.0,70,0.00,,,0.02,Rainwise IP-100,2013-06-19 00:40:00,
2013-06-18 20:45:00,57.0,47.5,30.07,NNW,337,0.0,0.0,71,0.00,,,0.02,Rainwise IP-100,2013-06-19 00:45:00,
2013-06-18 20:50:00,56.0,47.0,30.07,NNW,337,0.0,0.0,71,0.00,,,0.02,Rainwise IP-100,2013-06-19 00:50:00,
2013-06-18 20:55:00,55.0,50.5,30.07,West,270,0.0,1.0,84,0.00,,,0.02,Rainwise IP-100,2013-06-19 00:55:00,
2013-06-18 21:00:00,55.0,51.0,30.08,SSE,157,2.0,4.0,86,0.00,,,0.02,Rainwise IP-100,2013-06-19 01:00:00,
2013-06-18 21:05:00,54.0,50.5,30.08,SSE,157,2.0,3.0,88,0.00,,,0.02,Rainwise IP-100,2013-06-19 01:05:00,
2013-06-18 21:10:00,54.0,50.0,30.09,SSE,157,2.0,3.0,86,0.00,,,0.02,Rainwise IP-100,2013-06-19 01:10:00,
2013-06-18 21:15:00,53.0,49.0,30.09,SSE,157,4.0,5.0,88,0.00,,,0.02,Rainwise IP-100,2013-06-19 01:15:00,
2013-06-18 21:20:00,53.0,49.0,30.09,SSE,157,5.0,5.0,87,0.00,,,0.02,Rainwise IP-100,2013-06-19 01:20:00,
2013-06-18 21:25:00,52.0,48.0,30.09,SE,135,6.0,6.0,88,0.00,,,0.02,Rainwise IP-100,2013-06-19 01:25:00,
2013-06-18 21:30:00,52.0,49.0,30.09,SE,135,4.0,6.0,89,0.00,,,0.02,Rainwise IP-100,2013-06-19 01:30:00,
2013-06-18 21:35:00,52.0,48.0,30.09,SE,135,6.0,6.0,87,0.00,,,0.02,Rainwise IP-100,2013-06-19 01:35:00,
2013-06-18 21:40:00,52.0,48.0,30.09,SSE,157,7.0,9.0,87,0.00,,,0.02,Rainwise IP-100,2013-06-19 01:40:00,
2013-06-18 21:45:00,51.0,48.0,30.09,SSW,202,4.0,9.0,89,0.00,,,0.02,Rainwise IP-100,2013-06-19 01:45:00,
2013-06-18 21:50:00,52.0,48.0,30.09,South,180,5.0,7.0,87,0.00,,,0.02,Rainwise IP-100,2013-06-19 01:50:00,
2013-06-18 21:55:00,51.0,47.5,30.09,SE,135,3.0,7.0,87,0.00,,,0.02,Rainwise IP-100,2013-06-19 01:55:00,
2013-06-18 22:00:00,51.0,48.0,30.10,SE,135,3.0,6.0,90,0.00,,,0.02,Rainwise IP-100,2013-06-19 02:00:00,
2013-06-18 22:05:00,50.0,47.0,30.10,SSE,157,5.0,6.0,90,0.00,,,0.02,Rainwise IP-100,2013-06-19 02:05:00,
2013-06-18 22:10:00,50.0,47.0,30.10,SSE,157,6.0,7.0,89,0.00,,,0.02,Rainwise IP-100,2013-06-19 02:10:00,
2013-06-18 22:15:00,51.0,47.5,30.10,SE,135,7.0,7.0,88,0.00,,,0.02,Rainwise IP-100,2013-06-19 02:15:00,
2013-06-18 22:20:00,51.0,47.5,30.10,SE,135,6.0,7.0,88,0.00,,,0.02,Rainwise IP-100,2013-06-19 02:20:00,
2013-06-18 22:25:00,50.0,46.0,30.10,SE,135,4.0,7.0,87,0.00,,,0.02,Rainwise IP-100,2013-06-19 02:25:00,
2013-06-18 22:30:00,50.0,47.0,30.10,SE,135,3.0,5.0,90,0.00,,,0.02,Rainwise IP-100,2013-06-19 02:30:00,
2013-06-18 22:35:00,49.0,47.0,30.10,SE,135,0.0,3.0,91,0.00,,,0.02,Rainwise IP-100,2013-06-19 02:35:00,
2013-06-18 22:40:00,49.0,47.5,30.11,SE,135,1.0,2.0,93,0.00,,,0.02,Rainwise IP-100,2013-06-19 02:40:00,
2013-06-18 22:45:00,49.0,47.5,30.11,SSE,157,6.0,6.0,93,0.00,,,0.02,Rainwise IP-100,2013-06-19 02:45:00,
2013-06-18 22:50:00,48.0,46.0,30.11,SSW,202,5.0,7.0,92,0.00,,,0.02,Rainwise IP-100,2013-06-19 02:50:00,
2013-06-18 22:55:00,48.0,46.0,30.11,SSW,202,5.0,7.0,92,0.00,,,0.02,Rainwise IP-100,2013-06-19 02:55:00,
2013-06-18 23:00:00,49.0,47.0,30.11,SE,135,6.0,7.0,90,0.00,,,0.02,Rainwise IP-100,2013-06-19 03:00:00,
2013-06-18 23:05:00,49.0,47.0,30.11,South,180,2.0,7.0,91,0.00,,,0.02,Rainwise IP-100,2013-06-19 03:05:00,
2013-06-18 23:10:00,48.0,47.0,30.11,SW,225,3.0,7.0,93,0.00,,,0.02,Rainwise IP-100,2013-06-19 03:10:00,
2013-06-18 23:15:00,48.0,47.0,30.11,SW,225,4.0,4.0,94,0.00,,,0.02,Rainwise IP-100,2013-06-19 03:15:00,
2013-06-18 23:20:00,47.0,45.0,30.11,SW,225,3.0,5.0,95,0.00,,,0.02,Rainwise IP-100,2013-06-19 03:20:00,
2013-06-18 23:25:00,47.0,45.0,30.11,SW,225,4.0,6.0,95,0.00,,,0.02,Rainwise IP-100,2013-06-19 03:25:00,
2013-06-18 23:30:00,48.0,47.0,30.11,WSW,247,6.0,6.0,94,0.00,,,0.02,Rainwise IP-100,2013-06-19 03:30:00,
2013-06-18 23:35:00,48.0,47.0,30.11,South,180,6.0,6.0,94,0.00,,,0.02,Rainwise IP-100,2013-06-19 03:35:00,
2013-06-18 23:40:00,48.0,46.0,30.11,South,180,8.0,8.0,92,0.00,,,0.02,Rainwise IP-100,2013-06-19 03:40:00,
2013-06-18 23:45:00,48.0,47.0,30.11,South,180,3.0,8.0,93,0.00,,,0.02,Rainwise IP-100,2013-06-19 03:45:00,
2013-06-18 23:50:00,48.0,47.0,30.12,SSE,157,4.0,5.0,93,0.00,,,0.02,Rainwise IP-100,2013-06-19 03:50:00,
2013-06-18 23:55:00,48.0,46.0,30.12,SW,225,3.0,6.0,92,0.00,,,0.02,Rainwise IP-100,2013-06-19 03:55:00,